Temp
-12 -12 -13 -13 -13 -13 -13 -13 -13 -13 -13 -13 -13 -13 -12 -12 -12 -12 -12 -12 -11 -11 -12 -11 -11 -11 -11 -11 -12 -11 -10 -11 -11 -11 -11 -12 -12 -13 -12 -12 -12 -10 -11 -11 -11 -12 -11
-12 -12 -12 -13 -13 -13 -13 -13 -14 -13 -13 -13 -13 -13 -12 -12 -12 -12 -12 -12 -12 -12 -12 -12 -11 -11 -11 -12 -12 -12 -12 -12 -12 -13 -13 -13 -13 -13 -12 -12 -13 -12 -12 -11 -12 -10 -11
-13 -13 -13 -13 -13 -13 -14 -14 -13 -13 -13 -13 -13 -13 -13 -13 -13 -13 -12 -13 -13 -13 -13 -12 -12 -11 -11 -12 -12 -12 -12 -12 -12 -12 -12 -13 -13 -13 -13 -13 -13 -13 -13 -12 -11 -9 -10
-13 -13 -13 -13 -13 -13 -13 -14 -13 -13 -13 -13 -13 -13 -13 -13 -13 -13 -13 -14 -14 -14 -13 -13 -12 -12 -13 -12 -13 -12 -12 -12 -12 -12 -12 -12 -13 -13 -13 -14 -13 -14 -14 -12 -9 -10 -12
-13 -13 -13 -13 -13 -13 -13 -13 -14 -14 -14 -14 -14 -14 -14 -14 -14 -14 -14 -14 -14 -14 -14 -14 -14 -14 -13 -13 -13 -13 -12 -12 -12 -12 -12 -12 -13 -13 -13 -13 -14 -14 -12 -11 -10 -12 -13
-14 -14 -13 -13 -13 -14 -13 -14 -14 -14 -14 -14 -14 -14 -14 -15 -15 -15 -15 -15 -14 -15 -15 -15 -14 -14 -14 -14 -14 -15 -14 -13 -13 -13 -13 -13 -14 -14 -13 -14 -13 -12 -14 -14 -13 -12 -14
-14 -14 -14 -14 -14 -14 -14 -14 -14 -14 -14 -14 -15 -15 -15 -15 -15 -15 -15 -15 -15 -15 -16 -15 -15 -15 -16 -15 -15 -15 -14 -13 -13 -13 -13 -14 -15 -14 -16 -18 -17 -16 -16 -15 -14 -13 -15
-14 -14 -15 -14 -15 -15 -14 -14 -15 -15 -15 -15 -15 -15 -15 -15 -15 -15 -15 -16 -16 -16 -16 -16 -16 -16 -16 -15 -14 -14 -15 -14 -16 -16 -19 -19 -18 -20 -21 -21 -21 -19 -18 -16 -15 -15 -18
-16 -15 -15 -15 -15 -15 -16 -15 -15 -15 -15 -15 -15 -15 -16 -16 -16 -16 -16 -16 -16 -16 -17 -16 -16 -16 -15 -15 -15 -15 -16 -18 -21 -21 -21 -21 -22 -22 -21 -22 -23 -21 -21 -18 -16 -17 -19
-15 -16 -16 -15 -15 -15 -15 -15 -15 -15 -15 -15 -15 -16 -16 -17 -17 -17 -17 -17 -17 -17 -17 -16 -16 -17 -16 -16 -17 -18 -21 -21 -22 -22 -23 -22 -23 -23 -23 -22 -24 -22 -23 -21 -19 -19 -18
-16 -16 -16 -16 -15 -15 -15 -16 -16 -15 -16 -16 -16 -16 -17 -18 -18 -18 -18 -18 -17 -17 -18 -17 -17 -17 -17 -18 -19 -21 -22 -21 -23 -22 -23 -23 -22 -22 -21 -23 -24 -23 -24 -22 -21 -20 -19
-16 -16 -16 -16 -16 -16 -16 -15 -16 -16 -16 -16 -17 -18 -19 -19 -19 -19 -19 -18 -18 -18 -18 -18 -18 -18 -18 -21 -23 -22 -22 -22 -22 -22 -23 -23 -22 -22 -22 -23 -24 -23 -23 -21 -21 -20 -19
-17 -17 -16 -17 -16 -16 -15 -16 -16 -16 -17 -18 -19 -20 -20 -20 -20 -20 -19 -19 -19 -18 -18 -19 -18 -18 -20 -22 -23 -22 -22 -22 -22 -22 -22 -22 -22 -22 -22 -23 -23 -22 -22 -21 -21 -20 -19
-18 -17 -17 -17 -17 -16 -17 -16 -17 -17 -18 -20 -20 -20 -20 -21 -21 -20 -20 -19 -19 -19 -19 -19 -19 -21 -22 -23 -23 -22 -22 -22 -22 -22 -22 -22 -21 -22 -21 -21 -22 -22 -22 -21 -20 -20 -19
-18 -18 -18 -17 -17 -17 -17 -17 -18 -19 -20 -21 -21 -22 -22 -21 -21 -20 -20 -20 -19 -19 -19 -20 -22 -23 -24 -23 -23 -22 -22 -22 -21 -22 -22 -22 -21 -22 -22 -21 -22 -21 -22 -21 -20 -20 -19
-18 -18 -18 -18 -17 -18 -18 -18 -20 -20 -21 -22 -22 -23 -22 -21 -21 -21 -20 -20 -20 -20 -21 -23 -23 -24 -24 -23 -23 -23 -22 -22 -22 -22 -22 -22 -21 -21 -21 -22 -21 -21 -21 -21 -20 -20 -19
-19 -19 -19 -18 -18 -19 -19 -20 -21 -22 -23 -24 -24 -23 -22 -21 -21 -20 -20 -20 -20 -21 -23 -23 -24 -24 -24 -23 -23 -23 -23 -22 -22 -22 -22 -22 -22 -21 -21 -21 -21 -21 -21 -20 -19 -19 -18
-19 -19 -19 -19 -19 -20 -21 -22 -22 -24 -25 -24 -24 -23 -22 -22 -21 -21 -20 -20 -21 -22 -23 -23 -24 -24 -24 -23 -23 -22 -23 -23 -22 -22 -22 -22 -21 -22 -21 -21 -21 -21 -21 -20 -20 -19 -19
-20 -20 -20 -19 -20 -21 -22 -22 -23 -25 -25 -24 -23 -23 -22 -22 -21 -21 -21 -21 -22 -22 -23 -23 -23 -24 -24 -23 -23 -22 -23 -22 -22 -23 -22 -22 -21 -21 -22 -22 -22 -21 -21 -21 -20 -20 -19
-21 -20 -20 -21 -22 -23 -23 -24 -25 -25 -25 -24 -23 -23 -22 -22 -22 -21 -21 -21 -22 -22 -23 -23 -23 -24 -24 -24 -23 -22 -22 -22 -22 -22 -22 -22 -22 -22 -22 -22 -21 -21 -21 -21 -21 -20 -20
-21 -21 -21 -21 -23 -24 -24 -26 -26 -25 -25 -24 -23 -23 -23 -22 -22 -22 -22 -21 -22 -22 -22 -23 -23 -23 -23 -24 -24 -24 -23 -23 -23 -23 -22 -22 -22 -22 -22 -22 -21 -21 -21 -20 -20 -21 -20
-22 -22 -22 -22 -23 -24 -26 -26 -26 -26 -25 -25 -24 -24 -23 -23 -22 -22 -22 -22 -22 -22 -22 -22 -23 -23 -23 -23 -23 -22 -23 -23 -23 -23 -22 -22 -22 -22 -21 -22 -21 -21 -21 -21 -22 -21 -20
-24 -24 -23 -24 -24 -25 -26 -25 -25 -25 -25 -25 -24 -24 -24 -23 -22 -22 -22 -22 -22 -22 -22 -22 -23 -23 -23 -23 -23 -23 -24 -24 -24 -24 -23 -23 -22 -22 -22 -22 -21 -20 -20 -21 -22 -21 -20
-25 -25 -25 -24 -24 -24 -24 -25 -25 -25 -24 -24 -24 -24 -24 -24 -23 -23 -22 -22 -23 -23 -22 -22 -22 -23 -23 -23 -23 -24 -24 -24 -24 -24 -23 -23 -23 -23 -22 -22 -22 -22 -21 -21 -20 -20 -20
-25 -26 -25 -25 -25 -25 -25 -25 -25 -24 -25 -25 -24 -24 -24 -24 -23 -23 -23 -23 -23 -23 -23 -23 -23 -23 -23 -23 -23 -24 -24 -25 -24 -24 -24 -25 -24 -23 -23 -22 -22 -21 -22 -22 -21 -22 -22
-26 -26 -26 -26 -25 -25 -25 -25 -25 -25 -25 -25 -25 -24 -24 -24 -23 -23 -23 -23 -23 -23 -23 -23 -23 -23 -23 -23 -23 -24 -24 -24 -24 -24 -24 -24 -24 -24 -24 -23 -23 -23 -22 -22 -23 -22 -22
-25 -26 -26 -26 -25 -25 -26 -26 -25 -25 -25 -25 -25 -24 -24 -24 -24 -23 -23 -23 -23 -23 -23 -23 -23 -23 -23 -23 -23 -24 -24 -24 -24 -24 -24 -25 -24 -24 -24 -23 -23 -23 -23 -22 -22 -22 -22
-26 -26 -26 -26 -26 -26 -26 -26 -26 -25 -25 -25 -25 -24 -24 -24 -24 -24 -24 -23 -23 -23 -23 -23 -23 -23 -23 -23 -23 -24 -24 -24 -24 -24 -24 -24 -24 -24 -24 -24 -24 -23 -23 -23 -22 -22 -22
-26 -26 -26 -26 -26 -26 -26 -26 -26 -25 -26 -25 -25 -24 -24 -25 -25 -24 -24 -24 -24 -24 -24 -23 -23 -23 -23 -23 -23 -24 -24 -24 -24 -24 -24 -24 -24 -24 -24 -24 -24 -24 -23 -23 -23 -23 -23
Height
5729 5730 5731 5731 5732 5732 5732 5732 5733 5734 5734 5735 5736 5736 5736 5736 5737 5736 5736 5735 5735 5734 5734 5734 5736 5737 5737 5736 5732 5731 5731 5729 5728 5729 5731 5729 5727 5724 5726 5729 5723 5725 5731 5734 5741 5743 5749
5717 5718 5719 5720 5722 5722 5722 5721 5722 5724 5724 5725 5725 5726 5726 5726 5726 5726 5725 5725 5724 5722 5722 5724 5724 5726 5726 5723 5723 5720 5720 5718 5718 5718 5717 5714 5713 5710 5713 5712 5709 5716 5718 5721 5723 5734 5736
5708 5707 5708 5709 5710 5711 5711 5712 5713 5713 5714 5715 5715 5715 5715 5715 5715 5715 5715 5714 5713 5712 5711 5711 5712 5713 5712 5709 5708 5707 5705 5705 5703 5701 5702 5701 5696 5694 5694 5696 5695 5700 5696 5703 5714 5724 5717
5696 5699 5699 5699 5700 5699 5700 5701 5702 5702 5703 5704 5705 5704 5703 5704 5704 5704 5703 5703 5703 5701 5699 5700 5700 5701 5698 5698 5695 5692 5689 5689 5687 5687 5686 5682 5675 5675 5670 5676 5681 5676 5671 5687 5713 5708 5701
5684 5687 5688 5688 5687 5688 5688 5689 5689 5690 5691 5692 5692 5693 5692 5693 5694 5693 5692 5692 5693 5690 5687 5690 5689 5688 5687 5685 5684 5678 5672 5671 5670 5669 5668 5663 5654 5650 5654 5654 5653 5658 5658 5672 5691 5687 5687
5670 5673 5674 5675 5675 5676 5677 5677 5677 5678 5679 5680 5681 5681 5681 5681 5682 5682 5682 5684 5684 5679 5677 5679 5679 5680 5678 5675 5670 5661 5654 5652 5647 5643 5643 5635 5618 5617 5625 5626 5621 5644 5639 5647 5661 5678 5670
5654 5658 5660 5661 5663 5663 5664 5665 5666 5667 5668 5670 5671 5671 5671 5670 5671 5671 5673 5676 5675 5674 5669 5670 5666 5664 5663 5662 5657 5639 5634 5633 5621 5614 5607 5600 5586 5588 5596 5597 5598 5608 5612 5623 5643 5661 5655
5642 5645 5648 5649 5650 5652 5653 5652 5654 5655 5657 5659 5659 5661 5660 5661 5662 5663 5665 5665 5664 5662 5657 5657 5655 5652 5647 5645 5643 5626 5612 5606 5597 5587 5578 5569 5557 5565 5560 5564 5569 5579 5592 5601 5624 5641 5639
5627 5630 5633 5637 5638 5641 5643 5643 5642 5644 5645 5647 5649 5651 5651 5651 5653 5654 5654 5654 5653 5649 5646 5645 5642 5638 5629 5627 5617 5614 5592 5586 5579 5574 5561 5552 5546 5539 5535 5537 5544 5554 5570 5587 5607 5622 5624
5609 5615 5618 5623 5628 5630 5631 5632 5632 5632 5634 5635 5638 5640 5641 5641 5646 5646 5646 5644 5642 5640 5634 5634 5629 5622 5614 5611 5601 5591 5582 5576 5569 5562 5556 5549 5542 5538 5533 5530 5533 5535 5561 5580 5597 5607 5613
5595 5597 5606 5611 5613 5618 5621 5622 5622 5622 5621 5623 5627 5627 5630 5633 5634 5636 5637 5635 5633 5630 5625 5622 5618 5610 5601 5592 5585 5584 5576 5569 5560 5553 5550 5548 5538 5532 5527 5528 5527 5533 5556 5574 5590 5600 5600
5582 5589 5594 5597 5601 5606 5611 5611 5611 5612 5613 5614 5617 5620 5621 5624 5626 5628 5628 5627 5627 5625 5617 5612 5607 5601 5593 5585 5577 5576 5569 5561 5554 5550 5548 5546 5539 5533 5529 5525 5525 5536 5562 5572 5578 5585 5591
5570 5575 5581 5585 5592 5594 5597 5599 5601 5603 5605 5607 5609 5611 5614 5618 5620 5621 5621 5621 5620 5615 5612 5605 5599 5590 5581 5580 5576 5570 5569 5560 5554 5554 5550 5544 5539 5535 5534 5535 5532 5543 5557 5566 5575 5579 5592
5555 5561 5567 5573 5577 5583 5585 5587 5591 5595 5597 5599 5602 5605 5608 5612 5614 5615 5615 5615 5611 5606 5601 5593 5587 5579 5575 5577 5575 5569 5566 5562 5557 5554 5549 5543 5537 5536 5540 5541 5544 5544 5553 5565 5572 5581 5590
5548 5550 5554 5563 5567 5571 5572 5579 5581 5587 5589 5592 5595 5599 5603 5607 5609 5608 5609 5607 5604 5599 5594 5586 5579 5574 5573 5572 5572 5569 5564 5562 5558 5553 5550 5546 5541 5538 5541 5540 5546 5551 5558 5569 5571 5578 5585
5537 5541 5546 5552 5557 5562 5565 5569 5573 5579 5583 5586 5591 5595 5599 5601 5603 5603 5603 5601 5597 5591 5583 5579 5573 5571 5571 5570 5571 5568 5564 5562 5558 5552 5550 5549 5543 5544 5546 5548 5551 5558 5566 5570 5574 5580 5585
5527 5531 5535 5542 5548 5551 5558 5561 5565 5571 5578 5583 5588 5590 5594 5596 5597 5597 5597 5594 5589 5582 5579 5576 5572 5569 5568 5568 5568 5568 5565 5562 5557 5554 5550 5550 5547 5546 5544 5549 5554 5559 5562 5568 5573 5578 5578
5515 5520 5528 5534 5538 5544 5550 5555 5560 5566 5572 5577 5582 5585 5589 5590 5593 5592 5591 5588 5583 5578 5575 5573 5571 5568 5567 5566 5566 5566 5566 5561 5557 5556 5552 5550 5549 5550 5551 5552 5555 5558 5564 5567 5570 5575 5578
5508 5514 5520 5525 5531 5537 5543 5549 5554 5562 5568 5572 5575 5580 5584 5585 5586 5586 5586 5583 5578 5575 5573 5570 5570 5569 5567 5564 5565 5565 5563 5561 5557 5554 5553 5552 5553 5553 5554 5556 5556 5557 5562 5567 5570 5573 5576
5501 5506 5514 5521 5525 5531 5537 5543 5552 5557 5561 5567 5571 5575 5578 5579 5580 5580 5580 5577 5575 5574 5572 5570 5569 5568 5566 5563 5561 5561 5560 5559 5556 5555 5556 5555 5554 5554 5554 5553 5554 5556 5560 5564 5568 5572 5575
5494 5501 5508 5515 5520 5525 5532 5539 5547 5551 5556 5561 5566 5570 5573 5574 5575 5575 5575 5574 5573 5572 5570 5570 5569 5568 5566 5564 5561 5559 5556 5556 5553 5551 5553 5555 5555 5554 5553 5553 5552 5554 5559 5562 5566 5570 5574
5489 5496 5502 5510 5514 5520 5528 5534 5541 5546 5551 5556 5561 5564 5567 5570 5571 5571 5571 5571 5571 5570 5569 5569 5569 5567 5564 5561 5558 5554 5552 5550 5550 5547 5549 5552 5554 5554 5553 5552 5551 5555 5559 5562 5565 5567 5570
5485 5491 5499 5505 5510 5515 5521 5529 5535 5540 5546 5551 5555 5558 5562 5565 5564 5567 5568 5567 5568 5567 5566 5567 5567 5566 5564 5562 5558 5553 5551 5549 5548 5545 5543 5547 5551 5553 5553 5553 5555 5559 5558 5562 5562 5564 5567
5478 5486 5495 5500 5506 5510 5517 5524 5530 5535 5541 5547 5550 5554 5556 5558 5560 5562 5563 5564 5565 5564 5563 5565 5565 5564 5564 5561 5558 5554 5552 5550 5548 5542 5539 5543 5548 5552 5552 5554 5555 5555 5554 5556 5555 5558 5563
5474 5480 5488 5494 5500 5506 5513 5519 5526 5530 5536 5541 5545 5547 5551 5554 5555 5557 5559 5560 5561 5561 5560 5561 5562 5562 5561 5560 5558 5554 5552 5551 5547 5544 5542 5543 5545 5549 5551 5552 5554 5553 5554 5556 5557 5558 5560
5468 5474 5481 5488 5494 5502 5508 5514 5519 5525 5531 5534 5538 5542 5545 5548 5551 5553 5554 5555 5556 5558 5557 5559 5558 5559 5559 5557 5556 5554 5552 5549 5548 5546 5543 5544 5545 5546 5549 5551 5551 5552 5554 5554 5556 5557 5559
5462 5468 5476 5483 5488 5495 5502 5508 5514 5519 5524 5528 5532 5537 5540 5542 5547 5549 5550 5551 5552 5553 5553 5554 5555 5555 5555 5554 5553 5552 5550 5549 5548 5547 5545 5546 5545 5545 5545 5547 5548 5549 5549 5552 5554 5557 5555
5456 5462 5469 5476 5482 5488 5496 5502 5506 5512 5516 5522 5527 5530 5534 5537 5541 5543 5545 5546 5547 5548 5549 5550 5551 5551 5551 5550 5550 5549 5548 5547 5547 5547 5546 5544 5544 5544 5544 5544 5546 5545 5547 5549 5550 5550 5552
5449 5457 5463 5469 5475 5482 5488 5495 5500 5505 5511 5515 5520 5524 5528 5533 5535 5538 5540 5542 5543 5544 5545 5545 5546 5546 5546 5546 5546 5546 5545 5544 5544 5545 5545 5544 5542 5543 5544 5544 5544 5543 5544 5545 5546 5547 5547
Wind_Speed
52 52 53 49 45 45 48 45 45 46 46 45 43 43 43 44 45 44 44 44 44 43 43 43 43 42 43 45 46 49 52 52 53 53 51 51 53 54 54 54 59 61 61 65 63 58 56
54 56 55 53 50 46 48 47 45 47 50 48 46 46 47 45 45 48 49 49 48 45 45 45 45 46 46 45 44 46 48 53 52 52 53 55 55 55 58 58 60 58 61 62 64 64 62
44 51 50 51 53 51 49 47 46 47 49 49 48 48 47 49 44 46 46 44 42 41 43 44 45 45 45 50 52 54 54 54 55 58 58 57 60 62 62 60 60 60 65 64 64 60 68
54 57 57 59 57 56 55 50 49 49 51 53 50 47 46 46 46 44 42 42 40 40 43 44 43 45 46 51 54 57 60 61 63 64 65 67 68 69 72 70 66 65 70 68 58 64 67
57 55 51 50 49 52 56 54 53 51 53 52 49 47 44 43 43 41 40 39 39 40 43 44 45 47 51 52 55 59 63 66 67 69 71 74 77 79 78 78 77 74 74 69 63 67 65
56 52 57 55 53 52 56 46 48 49 50 49 45 44 43 41 40 40 39 39 41 38 44 46 46 48 49 51 55 61 67 71 75 79 81 84 84 84 84 84 87 80 81 73 68 66 65
58 57 57 57 58 48 57 48 47 47 48 46 44 43 41 39 40 40 39 41 41 40 43 46 47 49 50 53 58 67 74 78 82 87 87 83 85 90 79 74 80 80 84 77 69 63 63
60 65 60 63 56 53 52 48 46 48 47 47 42 43 41 41 42 40 39 38 39 42 42 45 47 50 55 61 63 70 77 79 75 74 61 71 78 62 57 56 64 74 80 83 72 63 53
72 66 62 64 58 59 45 48 47 48 48 47 44 46 44 43 42 37 34 36 38 38 43 47 50 56 62 64 67 70 69 61 45 45 49 41 19 29 42 45 52 66 70 79 72 59 45
57 63 57 56 53 53 48 51 53 53 49 48 48 46 45 40 40 33 30 31 34 38 43 49 53 55 61 63 60 55 38 40 41 40 19 9 12 25 25 21 39 60 62 65 55 52 44
58 59 54 52 56 41 41 54 54 54 48 49 49 46 43 36 31 28 29 31 33 38 44 46 50 54 57 57 52 29 28 34 42 25 26 12 18 17 21 24 25 44 51 54 42 45 52
61 57 55 53 46 38 43 48 51 54 51 50 45 36 28 27 25 23 26 29 32 36 43 44 47 50 51 36 31 25 30 38 15 19 21 21 5 8 12 1 10 17 36 27 28 43 50
61 66 60 54 45 45 44 46 51 51 47 39 29 28 24 21 19 22 23 26 32 34 38 42 45 48 39 17 22 23 21 25 13 8 12 7 6 12 4 8 32 35 29 29 34 42 37
58 50 45 46 45 46 42 43 41 43 38 26 26 21 19 15 18 20 21 26 30 34 38 41 42 37 26 11 15 24 27 19 13 12 13 14 21 7 10 4 29 27 21 27 27 32 30
47 45 43 44 43 47 45 42 35 33 27 24 19 16 14 15 17 18 22 25 28 32 35 34 29 22 19 17 17 21 17 10 10 16 21 17 13 19 18 6 24 26 22 24 30 23 30
46 44 44 43 47 46 43 37 30 28 24 17 14 14 14 15 15 17 20 24 28 31 28 25 24 17 14 17 18 18 12 13 13 14 15 15 13 7 12 14 14 19 18 20 25 20 16
45 41 44 47 44 41 38 30 27 23 17 20 16 14 12 13 13 15 19 22 26 25 19 20 19 12 10 14 19 20 5 10 13 14 14 9 14 8 14 14 10 13 19 24 26 22 15
36 36 39 42 42 37 31 29 27 23 24 19 16 12 12 12 12 14 17 20 21 17 15 18 17 13 6 7 17 18 16 16 14 10 11 9 15 12 5 5 7 17 16 23 20 15 19
27 30 41 41 36 33 33 32 26 24 25 21 17 14 12 11 12 12 15 18 14 13 14 18 17 15 11 7 14 13 13 15 17 16 15 11 14 11 6 6 7 6 17 19 16 11 18
30 34 36 34 35 35 35 29 27 28 27 21 20 14 13 12 11 10 13 12 12 9 13 15 15 12 11 9 11 13 11 16 18 13 15 14 14 10 7 9 16 19 20 19 15 20 15
33 29 37 37 38 37 33 31 31 31 28 24 18 15 14 12 10 10 9 7 6 8 10 12 13 13 12 12 13 15 16 13 20 16 13 14 15 10 10 8 5 22 21 24 24 22 21
32 33 37 35 39 40 34 34 34 30 27 23 19 15 14 13 11 9 7 2 1 5 8 9 10 14 17 19 21 19 20 21 19 21 14 15 6 8 8 8 13 15 21 25 25 26 23
31 31 31 34 40 41 41 34 33 33 28 21 19 18 17 16 13 12 9 5 5 4 4 6 9 12 15 18 20 21 13 13 15 15 16 10 6 6 5 8 14 6 12 11 18 22 26
31 31 37 35 40 41 36 36 35 32 25 24 20 18 20 16 17 14 15 12 9 7 5 6 8 11 13 15 18 9 9 11 15 18 6 8 7 6 3 4 1 6 16 11 11 8 18
31 31 37 39 37 38 36 33 34 30 21 22 22 19 21 20 19 16 16 16 16 11 9 10 11 12 13 13 13 7 7 10 11 20 2 4 7 7 6 6 7 4 5 11 13 10 11
33 37 37 36 36 35 32 33 31 29 25 20 20 21 22 21 19 18 17 17 18 16 15 12 14 14 13 13 10 4 3 5 9 14 12 5 9 7 8 10 10 9 9 10 15 17 17
34 33 36 37 34 30 31 32 31 28 25 23 23 22 23 23 20 19 18 17 17 18 17 16 16 16 14 14 12 8 6 4 4 8 10 2 9 11 11 12 13 12 13 12 17 18 19
36 35 35 35 33 31 31 31 30 28 24 24 25 25 24 23 19 21 19 19 18 16 15 18 16 16 16 15 15 10 9 8 5 3 9 14 10 10 13 15 14 17 19 19 18 21 21
35 38 36 33 30 31 31 29 28 28 30 27 26 23 22 21 21 21 20 18 18 15 14 16 15 17 14 14 14 11 11 13 11 9 7 6 8 12 13 11 12 18 20 19 23 26 24
Wind_Direction
268 269 270 268 271 275 279 273 270 267 264 264 266 268 267 272 279 280 283 285 286 285 282 281 278 275 275 275 276 279 278 278 277 274 271 269 268 266 265 262 259 258 254 254 254 250 249
275 270 267 265 270 272 275 273 270 268 265 263 267 270 268 272 279 281 282 282 282 282 280 278 278 277 277 280 280 279 278 279 279 279 280 278 274 268 265 263 261 261 258 254 248 252 249
274 273 270 267 269 273 273 270 271 271 269 269 267 268 269 272 276 277 277 278 279 281 278 277 276 278 284 285 286 287 286 283 281 281 279 276 273 271 270 266 260 257 255 252 251 252 250
275 274 275 279 271 272 270 267 272 274 269 269 273 272 273 274 272 273 276 279 279 280 283 282 282 285 288 289 290 288 286 284 282 281 281 280 277 273 270 266 262 255 252 255 255 251 246
270 272 273 269 269 265 268 269 267 266 269 270 268 268 269 270 273 276 280 280 280 285 285 286 289 290 290 290 289 289 287 283 282 282 279 278 276 273 271 268 263 256 260 262 254 247 248
263 264 268 267 271 272 264 268 265 264 266 265 264 265 266 269 274 280 282 281 283 285 286 289 289 289 289 291 293 292 291 292 290 289 286 282 276 270 266 262 259 264 257 250 249 248 245
265 272 271 265 266 277 274 269 263 263 263 261 264 265 267 272 278 281 280 280 283 279 280 286 293 296 296 296 297 300 297 294 296 293 289 282 276 273 268 259 251 246 242 241 243 243 248
259 264 268 268 275 278 283 263 260 261 261 260 264 266 268 272 273 273 274 277 278 283 290 294 297 298 300 301 299 302 303 300 297 291 287 281 280 281 268 255 246 241 241 236 233 232 242
261 263 266 263 275 273 283 261 257 256 259 260 263 266 266 267 270 271 274 281 286 293 295 297 298 301 304 309 310 306 301 299 296 298 295 293 285 276 268 248 235 231 235 233 228 226 228
251 255 259 265 271 277 282 260 259 254 256 254 260 264 264 264 270 268 282 290 293 295 300 303 304 313 312 312 309 304 295 298 300 305 273 264 339 308 286 288 232 222 226 227 219 217 224
247 257 258 261 265 271 268 264 263 256 248 252 258 258 259 265 268 274 285 293 297 299 308 309 317 314 317 313 309 302 301 307 303 287 286 282 295 326 274 296 246 233 211 218 208 214 220
251 255 264 258 264 262 270 267 263 260 256 253 256 258 257 258 273 285 293 298 301 305 312 317 317 320 317 308 296 304 315 316 294 275 285 304 314 314 296 277 230 173 185 181 193 223 227
249 256 259 261 256 256 257 262 264 261 258 253 250 250 257 270 285 293 299 302 304 313 314 317 320 321 317 293 298 307 321 325 260 263 329 333 285 305 48 118 136 155 175 201 216 224 224
257 247 249 246 245 249 250 252 256 254 252 242 249 252 259 278 288 294 303 308 314 319 321 323 326 322 313 265 296 319 320 321 298 301 333 323 336 205 188 172 155 177 197 203 221 217 209
238 232 234 241 246 244 242 248 249 252 240 236 236 249 268 283 288 301 307 314 318 321 325 329 326 319 306 295 305 328 318 328 313 296 305 326 31 156 183 220 164 192 199 208 221 207 221
238 236 237 242 243 244 239 236 231 231 226 223 236 250 263 281 289 299 311 317 323 328 335 331 329 324 299 292 300 333 270 318 319 312 312 297 334 7 200 170 200 200 213 209 214 222 225
235 235 239 238 235 234 231 226 217 216 212 226 232 247 265 272 284 299 311 320 327 341 339 333 330 327 327 310 301 316 325 301 313 311 317 291 295 16 75 163 170 167 192 191 181 182 162
231 231 236 229 226 220 218 213 207 200 216 224 230 238 256 267 281 295 315 326 338 350 343 338 333 318 329 342 309 329 346 9 342 312 301 303 270 311 162 165 209 192 194 208 183 152 162
235 233 231 229 220 209 207 207 200 204 220 220 231 236 253 260 274 299 313 331 352 353 350 343 338 323 312 313 314 326 338 352 349 359 335 318 282 275 202 241 217 213 179 203 199 182 186
225 228 230 219 210 206 206 197 200 208 222 221 235 233 249 251 268 295 313 340 356 4 351 348 345 343 329 344 322 330 335 326 327 344 339 341 312 254 291 348 227 205 197 194 217 201 196
227 227 223 221 208 206 199 197 206 214 221 225 236 235 242 244 258 279 307 339 4 20 18 360 357 4 360 358 350 322 326 320 312 313 316 309 334 289 267 357 142 205 196 203 202 206 208
227 226 229 215 208 200 197 202 212 216 222 224 223 228 235 238 244 259 282 278 359 360 25 15 10 3 360 358 345 332 326 316 304 299 292 295 314 322 42 53 166 185 208 207 204 203 209
222 223 224 217 214 208 206 210 213 225 227 222 228 233 234 232 230 236 238 235 273 308 5 4 352 354 353 350 346 334 350 360 351 319 288 272 254 271 320 6 139 91 147 183 209 213 220
210 217 219 223 221 217 217 217 219 224 230 227 229 233 230 229 230 231 236 240 256 272 297 306 323 333 337 343 343 346 339 340 349 352 258 216 222 209 176 345 86 211 184 138 197 211 191
207 218 219 217 220 225 227 218 224 234 224 224 234 230 230 231 228 232 238 243 250 259 267 279 291 312 323 334 344 334 340 349 350 10 23 235 213 204 209 184 200 187 224 205 234 249 255
209 211 217 219 224 225 228 226 230 239 232 231 235 229 227 232 232 235 244 246 251 255 258 266 274 290 306 320 338 308 294 325 346 356 350 199 219 215 224 212 237 237 231 234 234 242 242
201 207 217 221 222 225 223 230 231 237 234 233 236 233 227 231 233 234 241 252 255 255 261 265 272 280 292 303 312 292 281 290 326 350 22 267 249 222 228 233 243 259 256 249 246 251 251
206 206 212 215 217 218 218 223 227 230 231 241 236 224 226 230 235 236 238 245 257 261 267 266 271 277 282 289 295 295 269 253 252 322 20 319 326 254 246 242 254 256 257 251 255 251 253
214 210 210 213 214 217 221 220 227 231 231 230 225 225 227 232 236 238 238 245 255 268 274 274 275 272 278 282 287 285 263 247 236 223 100 352 290 259 269 257 267 259 259 259 254 258 262